Volver al catálogo

GLOBALSTAR M068

ActivoComunicacionesLEO
NORAD 32266·PAYLOAD·🇺🇸 United States

Lanzado Oct 20, 2007 desde Baikonur Cosmodrome

Loading…

Próximos Pases (próximas 24 horas)

TLE

ActualizadoSource: Space-Track

Época: Sep 14, 2026, 07:07 UTC

1 32266U 07048D   26257.29704517 -.00000086  00000-0  98694-4 0  9990
2 32266  51.9913 357.9378 0001416  76.9101 317.2042 12.62850514874931

Sigue GLOBALSTAR M068 en tiempo real con AllMySat

Download on the App Store